Temp
36 35 35 34 34 34 34 35 37 38 38 38 40 40 43 42 43 43 42 42 43 43
36 36 35 35 35 35 36 40 38 37 37 37 38 38 38 38 38 41 39 41 42 42
36 36 36 35 36 36 36 37 37 37 37 37 38 38 37 36 39 40 41 39 38 41
36 36 35 36 36 36 36 37 37 37 37 38 39 39 39 37 38 41 39 38 38 41
36 35 35 35 36 37 37 37 37 37 40 38 38 39 38 38 37 38 36 36 36 41
35 35 34 35 36 37 37 37 37 37 39 40 40 42 38 38 37 35 35 35 36 40
35 35 35 36 36 37 37 37 36 37 37 41 42 41 38 37 36 35 35 36 36 37
35 36 36 36 36 36 36 37 36 36 37 39 43 45 37 36 35 34 34 35 35 38
36 36 36 36 36 36 35 35 35 35 35 36 42 49 49 41 35 35 34 33 34 36
36 36 36 36 35 35 34 33 33 34 34 34 36 49 50 47 35 34 33 33 33 36
36 36 35 34 34 33 33 32 33 33 33 33 37 47 49 47 36 34 34 33 33 34
35 35 34 33 32 32 32 32 32 33 33 32 34 45 50 42 35 35 34 35 35 37
36 36 34 33 33 32 32 34 34 34 33 38 32 42 48 45 37 33 33 34 35 43
36 36 35 34 33 32 32 33 32 33 33 33 35 35 46 49 38 34 33 33 33 35
MSLP
1026.10 1025.78 1025.37 1024.96 1024.49 1023.95 1023.29 1022.65 1021.97 1021.35 1020.71 1020.15 1019.49 1018.74 1017.97 1017.49 1016.97 1016.42 1015.98 1015.51 1015.08 1014.71
1026.04 1025.69 1025.34 1024.78 1024.39 1023.91 1023.21 1022.47 1022.00 1021.43 1020.89 1020.29 1019.77 1019.18 1018.55 1017.99 1017.49 1016.89 1016.47 1016.00 1015.45 1014.98
1025.98 1025.59 1025.16 1024.77 1024.28 1023.76 1023.21 1022.64 1022.10 1021.51 1020.91 1020.33 1019.75 1019.30 1018.80 1018.21 1017.68 1017.20 1016.77 1016.33 1015.90 1015.27
1025.81 1025.53 1025.16 1024.79 1024.27 1023.80 1023.24 1022.77 1022.29 1021.76 1021.14 1020.54 1019.95 1019.42 1018.96 1018.51 1018.10 1017.59 1017.17 1016.66 1016.14 1015.38
1025.75 1025.45 1025.11 1024.77 1024.32 1023.70 1023.26 1022.78 1022.37 1021.87 1021.27 1020.64 1020.09 1019.58 1019.18 1018.80 1018.44 1018.08 1017.69 1017.07 1016.43 1015.73
1025.74 1025.54 1025.13 1024.68 1024.24 1023.70 1023.18 1022.69 1022.31 1021.86 1021.53 1020.80 1020.23 1019.77 1019.32 1018.99 1018.66 1018.31 1017.94 1017.42 1016.90 1016.15
1025.85 1025.55 1025.04 1024.71 1024.39 1023.51 1023.16 1022.82 1022.30 1021.90 1021.57 1021.05 1020.36 1019.90 1019.42 1019.12 1018.89 1018.57 1018.13 1017.62 1017.07 1016.50
1025.58 1025.46 1024.91 1024.57 1023.87 1023.60 1023.23 1022.86 1022.64 1022.28 1021.60 1021.15 1020.32 1019.61 1019.35 1019.15 1018.97 1018.72 1018.39 1017.84 1017.33 1016.71
1025.61 1025.14 1024.69 1024.51 1024.10 1023.69 1023.30 1023.22 1022.82 1022.32 1021.76 1021.15 1020.44 1019.35 1019.08 1019.12 1019.03 1018.79 1018.52 1018.15 1017.62 1017.03
1025.24 1025.07 1024.71 1024.39 1024.20 1023.78 1023.65 1023.37 1023.04 1022.48 1021.77 1021.32 1020.54 1019.47 1018.88 1018.86 1018.89 1018.78 1018.53 1018.14 1017.70 1017.08
1025.32 1024.86 1024.67 1024.51 1024.20 1023.94 1023.81 1023.56 1023.07 1022.44 1022.01 1021.54 1020.70 1019.77 1019.04 1019.14 1019.02 1018.81 1018.45 1018.10 1017.73 1017.20
1025.00 1024.81 1024.76 1024.73 1024.33 1024.07 1023.85 1023.49 1023.04 1022.54 1022.19 1021.58 1020.80 1020.04 1019.16 1019.11 1018.96 1018.84 1018.47 1017.96 1017.47 1016.95
1024.80 1024.60 1024.58 1024.45 1024.31 1024.05 1023.85 1023.32 1022.83 1022.60 1022.15 1021.53 1021.16 1020.32 1019.55 1019.01 1018.90 1018.89 1018.62 1018.06 1017.55 1016.98
1024.70 1024.44 1024.26 1024.21 1024.08 1023.90 1023.78 1023.26 1023.06 1022.78 1022.04 1021.43 1020.87 1020.35 1019.65 1018.92 1018.63 1018.82 1018.79 1018.41 1017.93 1017.31
Wind_Speed
6 3 4 4 4 4 4 5 5 7 7 7 8 9 9 7 7 8 7 10 8 3
6 6 5 6 5 4 5 5 7 7 7 7 6 7 7 6 7 7 6 7 8 5
6 6 6 5 6 6 6 6 7 8 7 7 6 6 6 5 6 7 6 6 7 6
6 6 6 5 6 6 6 6 7 7 7 7 8 7 5 6 7 8 8 8 8 8
5 5 6 6 6 6 6 6 6 6 9 7 7 7 6 6 6 7 7 8 8 9
6 6 6 6 6 6 6 6 6 6 7 9 8 7 6 5 6 6 5 6 7 9
6 6 6 6 6 6 6 6 7 6 6 8 9 5 5 5 6 6 6 6 6 7
5 5 6 6 6 6 6 6 6 7 8 6 7 4 1 5 5 6 6 6 6 6
6 5 5 6 6 6 6 6 6 7 6 8 8 11 10 6 5 5 5 6 6 6
4 5 5 5 5 6 6 5 6 6 6 7 8 20 11 10 3 4 5 6 6 7
4 4 5 5 5 5 4 5 4 5 6 6 7 17 11 12 5 5 6 6 6 6
3 3 4 5 5 3 3 4 4 4 6 6 7 17 14 6 4 5 6 6 6 6
4 3 1 2 3 3 2 3 4 5 5 8 6 13 16 10 3 5 4 6 6 13
4 4 3 2 2 2 3 4 4 5 6 6 6 7 13 14 2 1 4 4 5 5
Wind_Direction
337 331 318 315 321 314 311 311 309 325 328 332 340 351 353 351 357 4 355 5 342 321
336 347 331 331 335 314 320 331 334 328 326 332 336 340 351 355 351 354 352 358 347 356
324 338 333 336 339 338 322 332 333 335 336 331 329 340 354 338 350 358 357 350 344 351
330 339 334 336 329 328 326 333 335 332 333 339 338 331 337 353 358 10 5 354 350 358
338 344 342 332 328 330 328 331 329 333 349 337 333 329 333 344 0 2 354 348 349 355
344 346 335 328 328 331 327 321 332 341 350 327 326 328 345 353 355 352 350 339 343 348
336 327 316 320 336 325 325 323 322 326 334 340 337 324 346 359 354 352 349 343 341 336
318 330 327 338 326 330 340 326 325 328 333 340 323 304 16 5 343 346 340 336 340 333
331 327 324 331 330 336 343 348 348 345 329 332 337 345 33 35 355 340 337 330 332 333
321 323 325 327 345 343 347 349 352 344 344 336 329 344 22 20 357 336 327 324 329 328
328 318 338 345 351 344 355 351 332 333 339 339 325 340 17 17 352 338 321 316 315 310
298 313 344 354 344 339 358 344 330 314 341 329 321 339 2 30 350 334 322 314 320 319
273 262 329 317 337 313 331 318 333 341 336 327 321 329 344 11 338 329 328 328 334 342
281 267 231 276 283 311 344 341 348 342 320 315 312 318 333 357 348 314 333 333 326 323